Current Version              Previous Version:    01  02  03  04  05  06  07  08  09  10  11  12  13  14  15  16  17  18  19  20  21  22  23  24  25  26  27  28  29  30  
   31  32  33  34  35  36  37  38  39  40  41  42  43  44  45  46  47  48  49  50  51  52  53  54  55  56  57  58  59  60  

[Printable]
826
ASUS44 KLUB 241510
RWRTX
WEST TEXAS WEATHER ROUNDUP
NATIONAL WEATHER SERVICE LUBBOCK TX
900 AM CST MON NOV 24 2014

NOTE: "FAIR" INDICATES FEW OR NO CLOUDS BELOW 12,000 FEET WITH NO
SIGNIFICANT WEATHER AND/OR OBSTRUCTIONS TO VISIBILITY.

TXZ004-006>008-010-012-014-016-OKZ002-241600-
TEXAS PANHANDLE/OKLAHOMA PANHANDLE

CITY           SKY/WX    TMP DP  RH WIND       PRES   REMARKS
AMARILLO       SUNNY     36  30  79 W6        30.03R WCI  31
BORGER         SUNNY     36  27  69 SW9       30.03R WCI  29
CANADIAN       SUNNY     41  28  60 NW10      30.00R
DALHART        SUNNY     33  24  69 W13       30.02R WCI  24
DUMAS            N/A     32  26  80 W10       30.01R WCI  23
GUYMON         SUNNY     35  20  54 W14       29.99R WCI  26
HEREFORD       SUNNY     32  30  93 S7        30.05R WCI  26
PAMPA          SUNNY     34  28  79 W7        30.02R WCI  28
PERRYTON       SUNNY     35  24  65 W10       29.99R WCI  27
$$

TXZ026-029-035-045-048-241600-
SOUTHERN PANHANDLE/SOUTH PLAINS/ROLLING PLAINS

CITY           SKY/WX    TMP DP  RH WIND       PRES   REMARKS
CHILDRESS      CLOUDY    40  31  70 W7        30.05R
SEMINOLE       SUNNY     36  28  74 CALM      30.11R
LUBBOCK        MOSUNNY   34  28  79 W5        30.06R WCI  30
PLAINVIEW      SUNNY     35  31  87 W3        30.04R
SNYDER         SUNNY     36  31  81 W6        30.09R WCI  32
$$

TXZ052-054-060>062-072-078-127-140-154-169-241600-
PERMIAN BASIN/CONCHO VALLEY/BIG COUNTRY/EDWARDS PLATEAU

CITY           SKY/WX    TMP DP  RH WIND       PRES   REMARKS
ABILENE        SUNNY     41  32  70 SW3       30.10R
BIG SPRING     SUNNY     38  32  77 SW3       30.11R
BRADY          SUNNY     45  32  61 NW8       30.09R
BROWNWOOD      MOSUNNY   43  32  65 CALM      30.10R
JUNCTION       PTSUNNY   43  32  65 W5        30.11R
MIDLAND        SUNNY     41  30  65 NW10      30.08R
ODESSA         SUNNY     43  25  49 NW13      30.09R
SAN ANGELO     PTSUNNY   41  32  70 W8        30.10R
SONORA         CLOUDY    45  30  57 NW6       30.16R
SWEETWATER     SUNNY     40  32  71 SW6       30.11R
WINK           SUNNY     42  24  49 NW8       30.10R
$$

TXZ055-058-074-075-080-082-241600-
FAR WEST/SOUTHWEST MOUNTAINS/TRANS PECOS

CITY           SKY/WX    TMP DP  RH WIND       PRES   REMARKS
ALPINE         MOSUNNY   38  24  56 SW5       30.19R WCI  34
DRYDEN           N/A     51  27  39 W6        30.12R
EL PASO        PTSUNNY   38   4  24 E3        30.16R
FORT STOCKTON  CLOUDY    43  27  53 SW10      30.12R
GUADALUPE PASS SUNNY     37   9  31 W13       30.12R WCI  29
MARFA          SUNNY     30  19  64 CALM      30.16R
PECOS          PTSUNNY   37  27  68 W5        30.13R WCI  33
PRESIDIO       FAIR      46  25  45 N6        30.16R
$$

TXZ014-016-019-021>030-083-241600
TEXAS TECH WEST TEXAS MESONET/TEXAS PANHANDLE/NORTHERN SOUTH PLAINS

CITY           SKY/WX    TMP DP  RH WIND       PRES   REMARKS
ABERNATHY 5ENE   N/A     34  31  87 W5        30.06R WCI  30
AMARILLO 9NNE    N/A     34  31  87 S1        30.03R
AMARILLO 7SSE    N/A     35  29  79 W7        30.04R WCI  29
AMHERST 1NE      N/A     33  29  84 W8        30.07R WCI  26
BOOTLEG 11WNW    N/A     32  27  79 W8        30.06R WCI  25
CANADIAN 6E      N/A     37  26  65 W8        29.99R WCI  30
CAPROCK CYN SP   N/A     40  28  62 W13       30.05R WCI  32
CHILDRESS 2NNE   N/A     42  29  62 W6        30.04R
CLARENDON 2WSW   N/A     39  28  64 NW14      30.02R WCI  30
CLAUDE 12SW      N/A     36  29  76 W13       30.03R WCI  28
DIMMITT 2NE      N/A     34  29  82 SW7       30.04R WCI  27
FLOYDADA 2NNE    N/A     31  29  91 W6        30.04R WCI  26
FRIONA 2NE       N/A     30  27  88 SW6       30.05R WCI  24
GOODLETT 3W      N/A     42  31  64 SW6       30.04R
HART 3N          N/A     30  27  90 W6        30.05R WCI  24
HEREFORD 2NW     N/A     30  26  85 SW7       30.04R WCI  23
MCLEAN 1E        N/A     38  25  60 NW9       30.00R WCI  32
MEMPHIS 1NE      N/A     37  28  70 SW3       30.03R
MULESHOE 2SSW    N/A     30  28  93 W7        30.07R WCI  23
OLTON 6S         N/A     32  29  88 W9        30.06R WCI  25
PALO DURO SP     N/A     35  28  74 W9        30.05R WCI  28
PAMPA 2E         N/A     36  28  73 W12       30.01R WCI  27
PLAINVIEW 1S     N/A     34  30  85 W7        30.05R WCI  27
SILVERTON 7ESE   N/A     35  30  82 W8        30.05R WCI  29
TULIA 2ENE       N/A     32  29  90 W9        30.04R WCI  24
TURKEY 2WSW      N/A     38  29  71 SW8       30.04R WCI  32
UMBARGER 3NNE    N/A     32  28  86 SW6       30.04R WCI  26
$$

TXZ033>036-039>041-045>048-241600
TEXAS TECH WEST TEXAS MESONET/SOUTH PLAINS

CITY           SKY/WX    TMP DP  RH WIND       PRES   REMARKS
AIKEN 3WSW       N/A     33  29  82 W12       30.06R WCI  25
ANTON 6SSW       N/A     34  30  87 W8        30.07R WCI  27
BROWNFIELD 2S    N/A     35  28  77 NW5       30.08R WCI  31
DENVR CTY 7WNW   N/A     34  24  67 NW10      30.09R WCI  26
GAIL 2ESE        N/A     38  29  71 NW3       30.08R
LAMESA 2SE       N/A     38  31  74 NW7       30.09R WCI  33
LEVELLAND 4S     N/A     34  30  84 W6        30.07R WCI  29
LUBBOCK 3WNW     N/A     36  28  73 W5        30.07R WCI  32
MORTON 1ENE      N/A     33  29  85 W8        30.08R WCI  26
ODONNELL 1N      N/A     34  29  81 NW8       30.08R WCI  28
PLAINS 3N        N/A     33  28  81 W7        30.08R WCI  27
RALLS 1SE        N/A     35  29  78 W5        30.07R WCI  31
REESE CENTER     N/A     34  29  83 W7        30.07R WCI  28
SEAGRAVES 1SW    N/A     34  29  84 NW5       30.09R WCI  29
SEMINOLE 2NNE    N/A     35  28  73 NW9       30.09R WCI  28
SLATON 2NE       N/A     38  31  76 NW5       30.07R WCI  34
SNYDER 3E        N/A     37  32  82 W1        30.07R
SUNDOWN 8SW      N/A     34  30  83 NW8       30.08R WCI  28
TAHOKA 3NNE      N/A     38  29  70 NW7       30.07R WCI  33
WOLFFORTH 6SSW   N/A     37  30  77 W3        30.07R
$$

TXZ031-032-036>038-042>044-241600-
TEXAS TECH WEST TEXAS MESONET/ROLLING PLAINS

CITY           SKY/WX    TMP DP  RH WIND       PRES   REMARKS
ASPERMONT 3NE    N/A     41  33  71 W2        30.07R
FLUVANNA 3WNW    N/A     38  29  70 NW6       30.07R WCI  33
GRAHAM 5SSW      N/A     36  29  76 NW10      30.07R WCI  28
GUTHRIE 10WSW    N/A     42  29  61 W2        30.06R
HASKELL 1NW      N/A     41  32  69 W5        30.07R
JAYTON 1SSE      N/A     35  31  85 W6        30.07R WCI  30
KNOX CITY 3NW    N/A     40  31  69 W3        30.08R
LK A HENRY 1NW   N/A     39  30  71 NW6       30.08R WCI  34
NORTHFIELD 1S    N/A     39  32  76 W3        30.05R
ODELL 4ENE       N/A     42  30  63 W5        30.06R
PADUCAH 10SW     N/A     44  28  53 W7        30.05R
POST 1NE         N/A     42  28  59 NW10      30.07R
RRING SPRGS 3N   N/A     38  30  74 W9        30.05R WCI  31
SEYMOUR 3NW      N/A     42  33  70 W8        30.06R
SPUR 1W          N/A     38  30  73 NW6       30.06R WCI  33
WEINERT 2NNE     N/A     43  30  60 W5        30.08R
WHITE RVR 6NE    N/A     40  28  61 NW8       30.06R WCI  35
$$

TXZ052-054-060>062-072-078-127-140-154-169-241600-
TEXAS TECH WEST TEXAS MESONET/PERMIAN BASIN/
CONCHO VALLEY/BIG COUNTRY/EDWARDS PLATEAU

CITY           SKY/WX    TMP DP  RH WIND       PRES   REMARKS
COYANOSA 2N      N/A     36  28  72 W3        30.14
JUNCTION 1SSW    N/A     46  31  56 CALM      30.13R
MERTZON 3NNE     N/A     42  30  62 W10       30.11R
SAN ANGELO 7NW   N/A     40  31  71 W6        30.10R
STRLNG CT 4WSW   N/A     38  31  78 W3        30.11R
ST LAWRNCE 5SW   N/A     36  29  75 NW1       30.09S
SWEETWATR 11SW   N/A     37  32  81 SW3       30.09R
WALL 1E          N/A     40  32  74 CALM      30.11R
$$

TXZ055-058-074-075-080-082-241600-
TEXAS TECH WEST TEXAS MESONET/FAR WEST/SOUTHWEST MOUNTAINS/TRANS PECOS

CITY           SKY/WX    TMP DP  RH WIND       PRES   REMARKS
PRSMN GAP BBNP   N/A     46  29  49 S3        30.16R
GUADLPE MTN NP   N/A     38  -6  15 NE1       30.11R
$$